User: anonymous   Login
Location: Unspecified
(0.0000°N, 0.0000°E)
Time: 01:52:59
(UTC+00:00)
Language:

Hamsat - Orbit

View from above orbital plane
View from above orbital plane
View from above satellite
View from above satellite

Ground track
Ground track

The orbit data is extracted from the following two-line orbital elements,

1 28650U 05017B   21136.45573268  .00000393  00000-0  46838-4 0  9995
2 28650  97.8493 101.5492 0024689  87.4374 272.9669 14.89611013868802
Epoch (UTC): 16 May 2021 10:56:15
Eccentricity: 0.0024689
inclination: 97.8493°
perigee height: 582 km
apogee height: 616 km
right ascension of ascending node: 101.5492°
argument of perigee: 87.4374°
revolutions per day: 14.89611013
mean anomaly at epoch: 272.9669°
orbit number at epoch: 86880

The dashed part of the orbit path shows where the satellite is in the earth's shadow,  

DLR